Time,TemperatureF,DewpointF,PressureIn,WindDirection,WindDirectionDegrees,WindSpeedMPH,WindSpeedGustMPH,Humidity,HourlyPrecipIn,Conditions,Clouds,dailyrainin,SoftwareType,DateUTC
2013-10-10 00:01:00,83.2,78.6,29.94,East,88,7.0,12.0,86,0.00,RA,,0.00,WeatherDisplay:10.37,2013-10-10 06:01:00,
2013-10-10 00:16:00,83.1,78.5,29.94,East,85,8.0,10.0,86,0.00,CLR,,0.00,WeatherDisplay:10.37,2013-10-10 06:16:00,
2013-10-10 00:31:00,83.4,78.8,29.94,East,91,8.0,13.0,86,0.00,CLR,,0.00,WeatherDisplay:10.37,2013-10-10 06:31:00,
2013-10-10 00:46:00,83.3,79.0,29.94,East,90,5.0,12.0,87,0.00,CLR,,0.00,WeatherDisplay:10.37,2013-10-10 06:46:00,
2013-10-10 01:01:00,83.0,78.7,29.94,East,82,7.0,10.0,87,0.00,CLR,,0.00,WeatherDisplay:10.37,2013-10-10 07:01:00,
2013-10-10 01:16:00,83.1,79.1,29.94,East,80,5.0,10.0,88,0.00,CLR,,0.00,WeatherDisplay:10.37,2013-10-10 07:16:00,
2013-10-10 01:31:00,83.2,78.9,29.93,East,85,8.0,12.0,87,0.00,CLR,,0.00,WeatherDisplay:10.37,2013-10-10 07:31:00,
2013-10-10 01:46:00,83.0,78.4,29.93,ENE,71,3.0,10.0,86,0.00,CLR,,0.00,WeatherDisplay:10.37,2013-10-10 07:46:00,
2013-10-10 02:01:00,82.2,78.3,29.93,ENE,74,1.0,7.0,88,0.00,CLR,,0.00,WeatherDisplay:10.37,2013-10-10 08:01:00,
2013-10-10 02:16:00,81.9,78.0,29.93,ENE,63,3.0,9.0,88,0.00,CLR,,0.00,WeatherDisplay:10.37,2013-10-10 08:16:00,
2013-10-10 02:31:00,81.9,78.0,29.93,ENE,62,3.0,9.0,88,0.00,CLR,,0.00,WeatherDisplay:10.37,2013-10-10 08:31:00,
2013-10-10 02:46:00,81.8,77.9,29.93,ENE,67,3.0,8.0,88,0.00,CLR,,0.00,WeatherDisplay:10.37,2013-10-10 08:46:00,
2013-10-10 03:01:00,81.8,77.5,29.93,NE,47,6.0,10.0,87,0.00,CLR,,0.00,WeatherDisplay:10.37,2013-10-10 09:01:00,
2013-10-10 03:16:00,81.5,77.3,29.92,NE,48,8.0,13.0,87,0.00,CLR,,0.00,WeatherDisplay:10.37,2013-10-10 09:16:00,
2013-10-10 03:31:00,81.3,77.4,29.92,ENE,61,6.0,13.0,88,0.00,CLR,,0.00,WeatherDisplay:10.37,2013-10-10 09:31:00,
2013-10-10 03:46:00,81.2,77.3,29.91,NE,35,6.0,12.0,88,0.00,CLR,,0.00,WeatherDisplay:10.37,2013-10-10 09:46:00,
2013-10-10 04:01:00,81.1,77.2,29.92,NE,48,6.0,12.0,88,0.00,CLR,,0.00,WeatherDisplay:10.37,2013-10-10 10:01:00,
2013-10-10 04:16:00,81.1,77.2,29.92,ENE,70,3.0,13.0,88,0.00,CLR,,0.00,WeatherDisplay:10.37,2013-10-10 10:16:00,
2013-10-10 04:31:00,81.2,76.6,29.93,ENE,67,8.0,14.0,86,0.00,CLR,,0.00,WeatherDisplay:10.37,2013-10-10 10:31:00,
2013-10-10 04:46:00,80.1,75.5,29.93,East,88,12.0,20.0,86,0.00,CLR,,0.00,WeatherDisplay:10.37,2013-10-10 10:46:00,
2013-10-10 05:01:00,80.2,76.0,29.93,East,85,8.0,14.0,87,0.00,CLR,,0.00,WeatherDisplay:10.37,2013-10-10 11:01:00,
2013-10-10 05:16:00,80.8,76.9,29.94,East,91,8.0,12.0,88,0.00,CLR,,0.00,WeatherDisplay:10.37,2013-10-10 11:16:00,
2013-10-10 05:31:00,81.0,75.3,29.94,ENE,69,8.0,13.0,83,0.00,CLR,,0.00,WeatherDisplay:10.37,2013-10-10 11:31:00,
2013-10-10 05:46:00,81.2,75.2,29.94,East,85,10.0,15.0,82,0.00,CLR,,0.00,WeatherDisplay:10.37,2013-10-10 11:46:00,
2013-10-10 06:01:00,81.5,76.2,29.94,East,82,7.0,13.0,84,0.00,CLR,,0.00,WeatherDisplay:10.37,2013-10-10 12:01:00,
2013-10-10 06:16:00,81.6,76.6,29.95,ENE,74,9.0,14.0,85,0.00,CLR,,0.00,WeatherDisplay:10.37,2013-10-10 12:16:00,
2013-10-10 06:31:00,81.3,77.1,29.95,ENE,77,10.0,16.0,87,0.00,CLR,,0.00,WeatherDisplay:10.37,2013-10-10 12:31:00,
2013-10-10 06:46:00,80.8,76.9,29.95,ENE,70,8.0,18.0,88,0.00,CLR,,0.00,WeatherDisplay:10.37,2013-10-10 12:46:00,
2013-10-10 07:01:00,81.2,77.0,29.95,NE,44,6.0,14.0,87,0.00,CLR,,0.00,WeatherDisplay:10.37,2013-10-10 13:01:00,
2013-10-10 07:16:00,80.7,76.5,29.95,ENE,65,3.0,13.0,87,0.00,CLR,,0.00,WeatherDisplay:10.37,2013-10-10 13:16:00,
2013-10-10 07:31:00,81.3,76.7,29.95,East,95,13.0,16.0,86,0.00,CLR,,0.00,WeatherDisplay:10.37,2013-10-10 13:31:00,
2013-10-10 07:46:00,81.4,76.8,29.95,East,89,7.0,16.0,86,0.00,CLR,,0.00,WeatherDisplay:10.37,2013-10-10 13:46:00,
2013-10-10 08:01:00,81.6,76.3,29.95,East,91,12.0,15.0,84,0.00,CLR,,0.00,WeatherDisplay:10.37,2013-10-10 14:01:00,
2013-10-10 08:16:00,82.4,76.0,29.95,East,90,13.0,15.0,81,0.00,CLR,,0.00,WeatherDisplay:10.37,2013-10-10 14:16:00,
2013-10-10 08:31:00,82.8,76.8,29.95,East,91,12.0,15.0,82,0.00,CLR,,0.00,WeatherDisplay:10.37,2013-10-10 14:31:00,
2013-10-10 08:46:00,82.8,77.1,29.95,East,79,8.0,15.0,83,0.00,CLR,,0.00,WeatherDisplay:10.37,2013-10-10 14:46:00,
2013-10-10 09:01:00,82.9,76.5,29.96,ENE,72,7.0,13.0,81,0.00,CLR,,0.00,WeatherDisplay:10.37,2013-10-10 15:01:00,
2013-10-10 09:16:00,83.1,76.3,29.96,East,79,6.0,12.0,80,0.00,CLR,,0.00,WeatherDisplay:10.37,2013-10-10 15:16:00,
2013-10-10 09:31:00,84.2,77.7,29.97,ENE,69,2.0,10.0,81,0.00,CLR,,0.00,WeatherDisplay:10.37,2013-10-10 15:31:00,
2013-10-10 09:46:00,85.2,78.3,29.96,ENE,60,6.0,8.0,80,0.00,CLR,,0.00,WeatherDisplay:10.37,2013-10-10 15:46:00,
2013-10-10 10:01:00,85.7,78.8,29.97,ENE,70,5.0,8.0,80,0.00,CLR,,0.00,WeatherDisplay:10.37,2013-10-10 16:01:00,
2013-10-10 10:16:00,87.0,78.9,29.96,ENE,61,5.0,10.0,77,0.00,CLR,,0.00,WeatherDisplay:10.37,2013-10-10 16:16:00,
2013-10-10 10:31:00,88.4,79.9,29.96,ENE,63,5.0,9.0,76,0.00,CLR,,0.00,WeatherDisplay:10.37,2013-10-10 16:31:00,
2013-10-10 10:46:00,88.5,79.6,29.96,ENE,70,5.0,9.0,75,0.00,CLR,,0.00,WeatherDisplay:10.37,2013-10-10 16:46:00,
2013-10-10 11:01:00,87.2,78.7,29.95,ENE,60,7.0,13.0,76,0.00,CLR,,0.00,WeatherDisplay:10.37,2013-10-10 17:01:00,
2013-10-10 11:16:00,86.8,78.7,29.95,NE,54,6.0,12.0,77,0.00,CLR,,0.00,WeatherDisplay:10.37,2013-10-10 17:16:00,
2013-10-10 11:31:00,86.6,78.6,29.94,NE,53,5.0,10.0,77,0.00,CLR,,0.00,WeatherDisplay:10.37,2013-10-10 17:31:00,
2013-10-10 11:46:00,86.8,79.5,29.94,ENE,70,5.0,12.0,79,0.00,CLR,,0.00,WeatherDisplay:10.37,2013-10-10 17:46:00,
2013-10-10 12:01:00,88.1,80.4,29.94,ENE,65,5.0,10.0,78,0.00,CLR,,0.00,WeatherDisplay:10.37,2013-10-10 18:01:00,
2013-10-10 12:16:00,88.2,80.4,29.93,ENE,63,3.0,12.0,78,0.00,CLR,,0.00,WeatherDisplay:10.37,2013-10-10 18:16:00,
2013-10-10 12:31:00,88.7,80.6,29.92,ENE,73,5.0,12.0,77,0.00,CLR,,0.00,WeatherDisplay:10.37,2013-10-10 18:31:00,
2013-10-10 12:46:00,88.2,80.1,29.92,East,86,7.0,10.0,77,0.00,CLR,,0.00,WeatherDisplay:10.37,2013-10-10 18:46:00,
2013-10-10 13:01:00,87.9,80.1,29.92,East,84,6.0,13.0,78,0.00,CLR,,0.00,WeatherDisplay:10.37,2013-10-10 19:01:00,
2013-10-10 13:16:00,86.9,80.3,29.92,East,84,6.0,12.0,81,0.00,CLR,,0.00,WeatherDisplay:10.37,2013-10-10 19:16:00,
2013-10-10 13:31:00,82.7,77.3,29.92,SE,127,13.0,22.0,84,0.00,CLR,,0.00,WeatherDisplay:10.37,2013-10-10 19:31:00,
2013-10-10 13:46:00,79.6,74.4,29.91,SSE,147,10.0,21.0,84,0.01,CLR,,0.01,WeatherDisplay:10.37,2013-10-10 19:46:00,
2013-10-10 14:01:00,81.1,76.2,29.91,SSE,152,5.0,13.0,85,0.00,CLR,,0.01,WeatherDisplay:10.37,2013-10-10 20:01:00,
2013-10-10 14:16:00,82.3,77.3,29.90,SE,146,2.0,6.0,85,0.00,CLR,,0.01,WeatherDisplay:10.37,2013-10-10 20:16:00,
2013-10-10 14:31:00,84.5,79.5,29.89,East,99,2.0,6.0,85,0.00,CLR,,0.01,WeatherDisplay:10.37,2013-10-10 20:31:00,
2013-10-10 14:46:00,85.8,79.3,29.89,East,80,6.0,12.0,81,0.00,CLR,,0.01,WeatherDisplay:10.37,2013-10-10 20:46:00,
2013-10-10 15:01:00,85.5,79.4,29.89,ENE,72,8.0,13.0,82,0.00,CLR,,0.01,WeatherDisplay:10.37,2013-10-10 21:01:00,
2013-10-10 15:16:00,83.5,78.2,29.88,East,100,10.0,16.0,84,0.00,CLR,,0.01,WeatherDisplay:10.37,2013-10-10 21:16:00,
2013-10-10 15:31:00,82.8,77.8,29.89,East,97,6.0,16.0,85,0.00,CLR,,0.01,WeatherDisplay:10.37,2013-10-10 21:31:00,
2013-10-10 15:46:00,82.6,77.6,29.88,East,97,7.0,19.0,85,0.00,CLR,,0.01,WeatherDisplay:10.37,2013-10-10 21:46:00,
2013-10-10 16:01:00,82.5,77.9,29.89,ENE,66,2.0,18.0,86,0.00,CLR,,0.01,WeatherDisplay:10.37,2013-10-10 22:01:00,
2013-10-10 16:16:00,83.1,78.5,29.88,East,86,8.0,15.0,86,0.00,CLR,,0.01,WeatherDisplay:10.37,2013-10-10 22:16:00,
2013-10-10 16:27:00,83.4,78.1,29.89,East,84,9.0,14.0,84,0.00,CLR,,0.01,WeatherDisplay:10.37,2013-10-10 22:27:00,
2013-10-10 16:46:00,83.0,78.0,29.89,East,92,8.0,14.0,85,0.00,CLR,,0.01,WeatherDisplay:10.37,2013-10-10 22:46:00,
2013-10-10 17:01:00,83.1,78.5,29.89,East,93,7.0,13.0,86,0.00,CLR,,0.01,WeatherDisplay:10.37,2013-10-10 23:01:00,
2013-10-10 17:16:00,83.2,78.6,29.90,East,81,7.0,13.0,86,0.00,CLR,,0.01,WeatherDisplay:10.37,2013-10-10 23:16:00,
2013-10-10 17:31:00,83.2,78.6,29.90,East,88,6.0,10.0,86,0.00,CLR,,0.01,WeatherDisplay:10.37,2013-10-10 23:31:00,
2013-10-10 17:46:00,83.4,78.8,29.90,East,94,8.0,10.0,86,0.00,CLR,,0.01,WeatherDisplay:10.37,2013-10-10 23:46:00,
2013-10-10 18:01:00,83.5,78.8,29.90,East,90,6.0,12.0,86,0.00,CLR,,0.01,WeatherDisplay:10.37,2013-10-11 00:01:00,
2013-10-10 18:16:00,83.5,78.9,29.90,East,92,3.0,10.0,86,0.00,CLR,,0.01,WeatherDisplay:10.37,2013-10-11 00:16:00,
2013-10-10 18:31:00,83.5,78.5,29.91,East,92,6.0,12.0,85,0.00,CLR,,0.01,WeatherDisplay:10.37,2013-10-11 00:31:00,
2013-10-10 18:46:00,83.6,78.6,29.91,East,95,8.0,12.0,85,0.00,CLR,,0.01,WeatherDisplay:10.37,2013-10-11 00:46:00,
2013-10-10 19:01:00,83.7,78.4,29.91,ENE,71,8.0,14.0,84,0.00,CLR,,0.01,WeatherDisplay:10.37,2013-10-11 01:01:00,
2013-10-10 19:16:00,83.8,78.4,29.91,East,93,7.0,13.0,84,0.00,CLR,,0.01,WeatherDisplay:10.37,2013-10-11 01:16:00,
2013-10-10 19:31:00,83.5,77.8,29.92,ENE,65,8.0,14.0,83,0.00,CLR,,0.01,WeatherDisplay:10.37,2013-10-11 01:31:00,
2013-10-10 19:46:00,83.8,78.1,29.92,East,85,8.0,14.0,83,0.00,CLR,,0.01,WeatherDisplay:10.37,2013-10-11 01:46:00,
2013-10-10 20:01:00,83.7,78.0,29.92,ENE,69,9.0,14.0,83,0.00,CLR,,0.01,WeatherDisplay:10.37,2013-10-11 02:01:00,
2013-10-10 20:16:00,83.7,78.3,29.92,East,82,7.0,13.0,84,0.00,CLR,,0.01,WeatherDisplay:10.37,2013-10-11 02:16:00,
2013-10-10 20:31:00,83.7,78.4,29.92,East,93,12.0,16.0,84,0.00,CLR,,0.01,WeatherDisplay:10.37,2013-10-11 02:31:00,
2013-10-10 20:46:00,83.7,78.3,29.93,ENE,75,9.0,14.0,84,0.00,CLR,,0.01,WeatherDisplay:10.37,2013-10-11 02:46:00,
2013-10-10 21:01:00,83.8,78.1,29.93,East,84,9.0,16.0,83,0.00,CLR,,0.01,WeatherDisplay:10.37,2013-10-11 03:01:00,
2013-10-10 21:16:00,83.7,78.0,29.93,East,83,10.0,15.0,83,0.00,CLR,,0.01,WeatherDisplay:10.37,2013-10-11 03:16:00,
2013-10-10 21:46:00,83.8,78.1,29.93,East,87,9.0,14.0,83,0.00,CLR,,0.01,WeatherDisplay:10.37,2013-10-11 03:46:00,
2013-10-10 22:01:00,83.6,78.2,29.93,East,81,13.0,15.0,84,0.00,CLR,,0.01,WeatherDisplay:10.37,2013-10-11 04:01:00,
2013-10-10 22:16:00,83.8,78.1,29.94,East,86,12.0,15.0,83,0.00,CLR,,0.01,WeatherDisplay:10.37,2013-10-11 04:16:00,
2013-10-10 22:31:00,83.6,78.2,29.94,East,87,10.0,14.0,84,0.00,CLR,,0.01,WeatherDisplay:10.37,2013-10-11 04:31:00,
2013-10-10 22:46:00,83.7,78.7,29.94,East,94,7.0,13.0,85,0.00,CLR,,0.01,WeatherDisplay:10.37,2013-10-11 04:46:00,
2013-10-10 23:01:00,83.7,78.3,29.93,East,97,12.0,14.0,84,0.00,CLR,,0.01,WeatherDisplay:10.37,2013-10-11 05:01:00,
2013-10-10 23:16:00,83.6,78.2,29.93,East,95,5.0,15.0,84,0.00,CLR,,0.01,WeatherDisplay:10.37,2013-10-11 05:16:00,
2013-10-10 23:31:00,83.6,78.2,29.92,East,94,5.0,13.0,84,0.00,CLR,,0.01,WeatherDisplay:10.37,2013-10-11 05:31:00,
2013-10-10 23:46:00,83.5,78.2,29.92,ESE,102,5.0,15.0,84,0.00,CLR,,0.01,WeatherDisplay:10.37,2013-10-11 05:46:00,